Showing default

YAOGAN-30 K, 43170

Orbit data source: Space-Track

YAOGAN-30 K, 43170 is a payload satellite owned by PLA SSF (CN) in LEO that was launched on Thu, 25 Jan 2018 UTC via a CHANG ZHENG 2C launch vehicle from the Xichang Space Center, China (XSC). Payload-class satellites include a variety of spacecraft equipped with specific instruments for various scientific and technological missions. These include communications satellites like Starlink; space stations such as the ISS; scientific satellites like the Hubble; Earth observation satellites from companies like Planet Labs, Umbra, and HawkEye 360; GPS; miniature CubeSats for education and research; and military/defense satellites.

Loading next visibility...
Identifier
43170, 2018-011B
Orbit
LEO
Country
Flag of CNCN / PRC
Related business
Manufacturer
SECM
Mission
Operational Defense Sigint
Bus & Motor
Unknown
Mass
~500 kg wet, ~500 kg dry
Launch date (UTC)
2018-01-25 (8 years ago)
Launch vehicle
CHANG ZHENG 2C
Launch site
Xichang Space Center, China (XSC)
Object type
Payload
Rocket body
Debris
Shape & HBR
Box + 2 Pan, 0.5 m
Radar Cross Section
0.446 m², Large (>1 m²)

Expand to show TLE details & history
Last TLE update: 21 hours ago

TLE from 21 hours ago
0 YAOGAN-30 K
1 43170U 18011B   26172.55426806  .00001798  00000-0  13420-3 0  9998
2 43170  34.9952 124.3266 0003275 358.0822   1.9873 15.02690699458808
Epoch: 2026-06-21T13:18Z
TLE epoch observation values (Epoch: 2026-06-21T13:18:08.760Z)
Latitude
-0.00003°
Longitude
15.03719°
Altitude
555.25 km
Speed
7.588 km/s
True Right ascension
08h 17m 18s
True Declination
0° 00' 00"
Sunlit
Object was in daylight at epoch
Visualization orbit readout
Latitude
Unknown
Longitude
Unknown
Altitude
Unknown
Speed
Unknown
Apparent Right ascension
Unknown
Apparent Declination
Unknown
Sunlit
N/A
Visualization observer readout
Local Sidereal Time
21:40:07
Azimuth
Unknown
Elevation
Unknown
Doppler factor
Unknown
Orbital elements
Apogee altitude
564.098 km
Perigee altitude
559.553 km
Semi-major axis
6,939.962 km
Eccentricity
0.00033
Inclination
34.9952°
RAAN
124.3266°
Arg. of periapsis
358.0822°
True anomaly
1.9886°
Mean anomaly
1.9873°
Eccentric anomaly
1.98795°
Mean motion
3.75411 °/min
Orbital period
95.89 mins
BSTAR
0.0001342
Loading maneuver chart data...
Computing Atmospheric mass density...
Loading historical data...
Loading historical data...
Loading historical data...
Loading historical data...
Loading historical data...
Loading historical data...
Loading historical data...
Other satellites on launch #11 in the year 2018 (2018-01-25 UTC)

Documentation

Showing up to 5 results
|